TimeCDT,TemperatureF,Dew PointF,Humidity,Sea Level PressureIn,VisibilityMPH,Wind Direction,Wind SpeedMPH,Gust SpeedMPH,PrecipitationIn,Events,Conditions,WindDirDegrees,DateUTC
12:53 AM,70.0,64.9,84,30.03,10.0,NNW,5.8,-,N/A,,Mostly Cloudy,340,2012-10-06 05:53:00
1:53 AM,68.0,62.1,81,30.04,10.0,NNE,8.1,-,N/A,,Overcast,20,2012-10-06 06:53:00
2:16 AM,66.2,62.6,88,30.05,10.0,North,9.2,-,N/A,,Overcast,10,2012-10-06 07:16:00
2:53 AM,66.0,62.1,87,30.05,10.0,North,8.1,-,N/A,,Overcast,10,2012-10-06 07:53:00
3:08 AM,64.4,60.8,88,30.05,10.0,NE,11.5,19.6,N/A,,Overcast,40,2012-10-06 08:08:00
3:43 AM,62.6,57.2,82,30.06,10.0,NE,9.2,17.3,N/A,,Overcast,40,2012-10-06 08:43:00
3:53 AM,61.0,57.0,87,30.05,10.0,NNE,10.4,18.4,N/A,,Overcast,20,2012-10-06 08:53:00
4:39 AM,60.8,55.4,82,30.07,10.0,NNE,8.1,-,N/A,,Overcast,30,2012-10-06 09:39:00
4:53 AM,59.0,54.0,83,30.08,10.0,NE,10.4,17.3,N/A,,Overcast,40,2012-10-06 09:53:00
5:53 AM,57.9,53.1,84,30.10,10.0,NNE,10.4,-,N/A,,Overcast,20,2012-10-06 10:53:00
6:53 AM,57.0,51.1,81,30.11,10.0,NE,10.4,-,N/A,,Overcast,40,2012-10-06 11:53:00
7:53 AM,55.9,51.1,84,30.12,10.0,NNE,9.2,-,N/A,,Overcast,30,2012-10-06 12:53:00
8:02 AM,55.4,51.8,88,30.14,10.0,NE,9.2,17.3,N/A,,Overcast,40,2012-10-06 13:02:00
9:53 AM,53.1,48.9,86,30.16,10.0,NNE,8.1,-,N/A,,Overcast,30,2012-10-06 14:53:00
10:53 AM,52.0,46.9,83,30.16,10.0,NE,6.9,-,N/A,,Overcast,40,2012-10-06 15:53:00
11:53 AM,53.1,46.9,80,30.15,10.0,ENE,8.1,-,N/A,,Overcast,60,2012-10-06 16:53:00
12:53 PM,54.0,48.0,80,30.15,10.0,ENE,5.8,-,N/A,,Overcast,70,2012-10-06 17:53:00
1:53 PM,54.0,46.0,75,30.14,10.0,North,8.1,-,N/A,,Overcast,10,2012-10-06 18:53:00
2:53 PM,54.0,46.0,75,30.12,10.0,NNE,8.1,-,N/A,,Overcast,30,2012-10-06 19:53:00
3:53 PM,53.1,46.0,77,30.12,10.0,NE,8.1,-,N/A,,Overcast,40,2012-10-06 20:53:00
4:53 PM,52.0,45.0,77,30.12,10.0,NE,8.1,-,N/A,,Overcast,50,2012-10-06 21:53:00
5:53 PM,52.0,44.1,74,30.13,10.0,NNE,10.4,-,N/A,,Overcast,30,2012-10-06 22:53:00
6:53 PM,52.0,44.1,74,30.15,10.0,Variable,6.9,-,N/A,,Overcast,0,2012-10-06 23:53:00
7:53 PM,51.1,41.0,68,30.17,10.0,NE,4.6,-,N/A,,Overcast,50,2012-10-07 00:53:00
8:53 PM,50.0,42.1,74,30.19,10.0,NNE,8.1,18.4,N/A,,Overcast,30,2012-10-07 01:53:00
9:53 PM,48.9,41.0,74,30.21,10.0,NE,11.5,17.3,N/A,,Overcast,40,2012-10-07 02:53:00
10:36 PM,48.2,39.2,71,30.21,10.0,NNE,9.2,-,N/A,,Overcast,30,2012-10-07 03:36:00
10:53 PM,48.9,39.9,71,30.22,10.0,NNE,6.9,-,N/A,,Overcast,30,2012-10-07 03:53:00
11:53 PM,48.9,41.0,74,30.23,10.0,Variable,6.9,-,N/A,,Overcast,0,2012-10-07 04:53:00